Weather History for Colorado Springs, CO

Change the Weather History Date:

Friday, August 9, 2013

  Actual Average Record
Temperature  
Mean Temperature 64 °F 70 °F  
Max Temperature 73 °F 82 °F 95 °F (1962)
Min Temperature 54 °F 57 °F 44 °F (1912)
Degree Days  
Heating Degree Days 1 0  
Month to date heating degree days 4 0  
Since 1 June heating degree days 34 89  
Since 1 July heating degree days 9 10  
Cooling Degree Days 0 5  
Month to date cooling degree days 44 48  
Year to date cooling degree days 454 332  
Since 1 June cooling degree days 432 322  
Growing Degree Days 12 (Base 50)    
Moisture  
Dew Point 52 °F    
Average Humidity 74    
Maximum Humidity 100    
Minimum Humidity 47    
Precipitation  
Precipitation 0.28 in 0.13 in 1.33 in (1924)
Month to date precipitation 1.28 1.10  
Year to date precipitation 9.22 11.55  
Snow  
Snow 0.00 in 0.00 in 0.00 in (2002)
Month to date snowfall 0.0 0.0  
Since 1 June snowfall T 0.0  
Since 1 July snowfall T 0.0  
Snow Depth 0.00 in    
Sea Level Pressure  
Sea Level Pressure 30.20 in    
Wind  
Wind Speed 7 mph (SE)    
Max Wind Speed 25 mph    
Max Gust Speed 33 mph    
Visibility 8 miles    
Events Rain , Thunderstorm    
T = Trace of Precipitation, MM = Missing Value Source: NWS Daily Summary

Daily Weather History Graph

Daily Weather History Graph

Search for Another Location

Airport:

Trip Planner

Search our weather history database for the weather conditions in past years. The results will help you decide how hot, cold, wet, or windy it might be!

Date:

Astronomy

Aug. 09, 2013 Rise Set
Actual Time 6:07 AM MDT 8:00 PM MDT
Civil Twilight 5:38 AM MDT 8:29 PM MDT
Nautical Twilight 5:03 AM MDT 9:04 PM MDT
Astronomical Twilight 4:25 AM MDT 9:41 PM MDT
Moon 8:53 AM MDT (8/9) 9:14 PM MDT (8/9)
Length of Visible Light 14h 50m
Length of Day
13h 53m
Waxing Crescent, 8% of the Moon is Illuminated
Aug 9
Waxing Crescent
Aug 14
First Quarter
Aug 20
Full
Aug 28
Last Quarter
Sep 5
New

Hourly Weather History & Observations

Time (MDT) Temp. Dew Point Humidity Pressure Visibility Wind Dir Wind Speed Gust Speed Precip Events Conditions
12:54 AM 59.0 °F 48.0 °F 67% 30.09 in 10.0 mi Calm Calm - N/A   Mostly Cloudy
1:35 AM 57.2 °F 51.8 °F 82% 30.29 in 10.0 mi SE 5.8 mph - N/A   Overcast
1:54 AM 57.9 °F 54.0 °F 87% 30.09 in 10.0 mi Calm Calm - N/A   Overcast
2:13 AM 57.2 °F 55.4 °F 94% 30.28 in 10.0 mi Calm Calm - N/A   Mostly Cloudy
2:54 AM 57.0 °F 54.0 °F 89% 30.08 in 10.0 mi Calm Calm - N/A   Mostly Cloudy
3:27 AM 57.2 °F 53.6 °F 88% 30.28 in 10.0 mi NNE 3.5 mph - N/A   Overcast
3:54 AM 55.9 °F 53.1 °F 90% 30.09 in 10.0 mi NE 3.5 mph - N/A   Overcast
4:54 AM 55.9 °F 53.1 °F 90% 30.07 in 8.0 mi Calm Calm - N/A   Overcast
5:01 AM 57.2 °F 53.6 °F 88% 30.27 in 7.0 mi Calm Calm - N/A   Overcast
5:41 AM 55.4 °F 53.6 °F 94% 30.27 in 1.8 mi SE 3.5 mph - N/A   Overcast
5:54 AM 55.9 °F 55.0 °F 97% 30.08 in 1.5 mi Calm Calm - N/A   Overcast
6:29 AM 55.4 °F 55.4 °F 100% 30.28 in 3.0 mi East 5.8 mph - N/A   Overcast
6:54 AM 57.0 °F 55.0 °F 93% 30.11 in 6.0 mi Calm Calm - N/A   Mostly Cloudy
7:15 AM 57.2 °F 55.4 °F 94% 30.30 in 10.0 mi Calm Calm - N/A   Mostly Cloudy
7:54 AM 57.9 °F 55.0 °F 90% 30.13 in 10.0 mi SSE 4.6 mph - N/A   Mostly Cloudy
8:31 AM 57.2 °F 53.6 °F 88% 30.32 in 10.0 mi South 3.5 mph - N/A   Mostly Cloudy
8:54 AM 60.1 °F 53.1 °F 78% 30.14 in 10.0 mi Calm Calm - N/A   Mostly Cloudy
9:54 AM 63.0 °F 52.0 °F 67% 30.13 in 10.0 mi Calm Calm - N/A   Scattered Clouds
10:54 AM 66.9 °F 54.0 °F 63% 30.12 in 10.0 mi SSW 4.6 mph - N/A   Scattered Clouds
11:54 AM 69.1 °F 51.1 °F 53% 30.12 in 10.0 mi ESE 9.2 mph - N/A   Scattered Clouds
12:54 PM 68.0 °F 51.1 °F 55% 30.11 in 10.0 mi SE 9.2 mph - N/A   Mostly Cloudy
1:39 PM 68.0 °F 51.8 °F 56% 30.30 in 10.0 mi SSE 13.8 mph - N/A Thunderstorm Thunderstorm
1:54 PM 66.9 °F 51.1 °F 57% 30.12 in 10.0 mi SSE 9.2 mph - N/A Thunderstorm Thunderstorm
2:14 PM 66.2 °F 50.0 °F 56% 30.31 in 10.0 mi SSE 11.5 mph - 0.00 in Rain Light Rain
2:30 PM 66.2 °F 50.0 °F 56% 30.31 in 10.0 mi SSE 11.5 mph - 0.00 in Thunderstorm Thunderstorm
2:47 PM 66.2 °F 50.0 °F 56% 30.31 in 10.0 mi South 6.9 mph - 0.00 in   Mostly Cloudy
2:54 PM 66.9 °F 50.0 °F 54% 30.12 in 10.0 mi SSW 9.2 mph - 0.00 in   Mostly Cloudy
3:54 PM 69.1 °F 52.0 °F 54% 30.09 in 10.0 mi NNW 3.5 mph - 0.00 in   Mostly Cloudy
4:54 PM 70.0 °F 48.0 °F 46% 30.10 in 10.0 mi SSE 12.7 mph - N/A   Mostly Cloudy
5:44 PM 69.8 °F 48.2 °F 46% 30.31 in 10.0 mi SSE 6.9 mph - N/A Thunderstorm Thunderstorm
5:54 PM 66.9 °F 46.9 °F 49% 30.16 in 10.0 mi WNW 18.4 mph 24.2 mph N/A Thunderstorm Thunderstorm
6:07 PM 55.4 °F 48.2 °F 77% 30.35 in 2.0 mi WNW 21.9 mph 29.9 mph 0.00 in Rain , Thunderstorm Thunderstorms and Rain
6:16 PM 55.4 °F 51.8 °F 88% 30.35 in 3.0 mi NW 25.3 mph 32.2 mph 0.06 in Rain , Thunderstorm Light Thunderstorms and Rain
6:54 PM 55.0 °F 50.0 °F 83% 30.24 in 4.0 mi NE 13.8 mph - 0.18 in Rain , Thunderstorm Light Thunderstorms and Rain
7:30 PM 55.4 °F 51.8 °F 88% 30.36 in 5.0 mi ENE 15.0 mph - 0.07 in Rain , Thunderstorm Light Thunderstorms and Rain
7:46 PM 55.4 °F 51.8 °F 88% 30.33 in 9.0 mi ENE 18.4 mph 28.8 mph 0.08 in Rain , Thunderstorm Light Thunderstorms and Rain
7:54 PM 57.0 °F 51.1 °F 81% 30.17 in 9.0 mi ENE 18.4 mph - 0.09 in Rain Light Rain
8:54 PM 55.9 °F 53.1 °F 90% 30.20 in 10.0 mi West 9.2 mph - 0.01 in   Mostly Cloudy
9:54 PM 55.0 °F 51.1 °F 86% 30.19 in 10.0 mi NNW 3.5 mph - N/A   Mostly Cloudy
10:54 PM 55.9 °F 51.1 °F 84% 30.17 in 10.0 mi SE 9.2 mph - N/A   Mostly Cloudy
11:54 PM 55.0 °F 52.0 °F 89% 30.16 in 10.0 mi SE 9.2 mph - N/A   Mostly Cloudy